TimeCDT,TemperatureF,Dew PointF,Humidity,Sea Level PressureIn,VisibilityMPH,Wind Direction,Wind SpeedMPH,Gust SpeedMPH,PrecipitationIn,Events,Conditions,WindDirDegrees,DateUTC
12:53 AM,55.9,50.0,80,29.99,10.0,SE,9.2,-,N/A,,Clear,140,2013-06-07 05:53:00
1:53 AM,55.9,51.1,84,29.98,10.0,SSE,6.9,-,N/A,,Clear,160,2013-06-07 06:53:00
2:53 AM,55.0,51.1,86,29.96,10.0,South,8.1,-,N/A,,Clear,170,2013-06-07 07:53:00
3:53 AM,54.0,50.0,86,29.96,10.0,South,9.2,-,N/A,,Clear,180,2013-06-07 08:53:00
4:53 AM,52.0,50.0,93,29.96,10.0,South,8.1,-,N/A,,Clear,170,2013-06-07 09:53:00
5:53 AM,52.0,50.0,93,29.96,10.0,South,8.1,-,N/A,,Mostly Cloudy,170,2013-06-07 10:53:00
6:53 AM,52.0,50.0,93,29.96,10.0,SSE,6.9,-,N/A,,Overcast,160,2013-06-07 11:53:00
7:53 AM,55.0,51.1,86,29.97,10.0,South,8.1,-,N/A,,Mostly Cloudy,180,2013-06-07 12:53:00
8:53 AM,55.9,51.1,84,29.96,10.0,South,6.9,-,N/A,,Mostly Cloudy,180,2013-06-07 13:53:00
9:53 AM,57.9,52.0,81,29.96,10.0,South,6.9,-,N/A,,Mostly Cloudy,170,2013-06-07 14:53:00
10:53 AM,63.0,52.0,67,29.94,10.0,SSE,6.9,-,N/A,,Mostly Cloudy,150,2013-06-07 15:53:00
11:53 AM,66.9,53.1,61,29.92,10.0,South,8.1,-,N/A,,Mostly Cloudy,170,2013-06-07 16:53:00
12:53 PM,69.1,50.0,51,29.91,10.0,South,11.5,-,N/A,,Mostly Cloudy,180,2013-06-07 17:53:00
1:53 PM,70.0,48.9,47,29.88,10.0,South,9.2,-,N/A,,Mostly Cloudy,170,2013-06-07 18:53:00
2:53 PM,72.0,50.0,46,29.86,10.0,South,13.8,21.9,N/A,,Mostly Cloudy,180,2013-06-07 19:53:00
3:53 PM,73.0,50.0,44,29.84,10.0,SSW,16.1,23.0,N/A,,Mostly Cloudy,200,2013-06-07 20:53:00
4:53 PM,73.9,48.9,41,29.82,10.0,South,12.7,-,N/A,,Mostly Cloudy,170,2013-06-07 21:53:00
5:53 PM,71.1,48.9,45,29.81,10.0,SSE,10.4,-,N/A,,Mostly Cloudy,160,2013-06-07 22:53:00
6:47 PM,66.2,51.8,60,29.80,10.0,ESE,16.1,21.9,0.00,Rain-Thunderstorm,Light Thunderstorms and Rain,120,2013-06-07 23:47:00
6:53 PM,64.9,50.0,58,29.82,10.0,ESE,11.5,21.9,0.00,Rain-Thunderstorm,Light Thunderstorms and Rain,120,2013-06-07 23:53:00
7:16 PM,60.8,53.6,77,29.86,1.8,WNW,8.1,-,0.05,Rain-Thunderstorm,Thunderstorms and Rain,300,2013-06-08 00:16:00
7:27 PM,59.0,53.6,82,29.85,0.8,ESE,11.5,-,0.24,Rain-Thunderstorm,Thunderstorms and Rain,110,2013-06-08 00:27:00
7:31 PM,60.8,55.4,82,29.85,2.0,ESE,9.2,-,0.29,Rain-Thunderstorm,Light Thunderstorms and Rain,110,2013-06-08 00:31:00
7:38 PM,60.8,55.4,82,29.85,10.0,East,9.2,-,0.30,Rain,Light Rain,100,2013-06-08 00:38:00
7:53 PM,59.0,55.9,90,29.87,10.0,ENE,8.1,-,0.30,,Overcast,60,2013-06-08 00:53:00
8:53 PM,59.0,55.0,87,29.85,10.0,ESE,11.5,-,N/A,,Mostly Cloudy,110,2013-06-08 01:53:00
9:53 PM,59.0,53.1,81,29.84,10.0,SSE,13.8,-,N/A,,Mostly Cloudy,150,2013-06-08 02:53:00
10:53 PM,57.9,51.1,78,29.84,10.0,SE,11.5,-,N/A,,Overcast,130,2013-06-08 03:53:00
11:53 PM,57.0,51.1,81,29.82,10.0,SE,10.4,-,N/A,,Overcast,140,2013-06-08 04:53:00